,,,PA_Meas_PMT16A,,PR_Meas_QMR101_102,,RH_Meas_QMH101,,SR_Meas_QMS101,,TA_Meas_QMH101,,GenWind,,GenWind,
date,time,status,PA,status,PR,status,RH,status,SR,status,TA,status,DirAvg,status,SpdAvg,
2012-08-13, 06:55:05,VALID,1004.63,VALID,0,VALID,88.3272,VALID,194.969,VALID,25.5123,VALID,351,VALID,0.625391,
2012-08-13, 06:56:05,VALID,1004.66,VALID,0,VALID,88.0068,VALID,197.822,VALID,25.6311,VALID,351,VALID,0.625781,
2012-08-13, 06:57:05,VALID,1004.69,VALID,0,VALID,87.3659,VALID,193.828,VALID,25.7265,VALID,351,VALID,0.636719,
2012-08-13, 06:58:05,VALID,1004.71,VALID,0,VALID,87.2591,VALID,178.423,VALID,25.8648,VALID,351,VALID,0.491016,
2012-08-13, 06:59:05,VALID,1004.73,VALID,0,VALID,86.9998,VALID,185.107,VALID,26.0012,VALID,348,VALID,0.438672,
2012-08-13, 07:00:05,VALID,1004.75,VALID,0,VALID,86.9616,VALID,190.486,VALID,26.1959,VALID,347,VALID,0.0742188,
2012-08-13, 07:01:05,VALID,1004.78,VALID,0,VALID,86.42,VALID,190.894,VALID,26.4492,VALID,347,VALID,0.00390625,
2012-08-13, 07:02:05,VALID,1004.75,VALID,0,VALID,84.4441,VALID,201.164,VALID,26.7024,VALID,347,VALID,0.0117188,
2012-08-13, 07:03:05,VALID,1004.77,VALID,0,VALID,82.8039,VALID,196.763,VALID,27.0121,VALID,347,VALID,0.0128906,
2012-08-13, 07:04:05,VALID,1004.77,VALID,0,VALID,81.5756,VALID,196.6,VALID,27.2654,VALID,347,VALID,0,
2012-08-13, 07:05:05,VALID,1004.81,VALID,0,VALID,80.7364,VALID,201.735,VALID,27.4992,VALID,334,VALID,0.329688,
2012-08-13, 07:06:05,VALID,1004.79,VALID,0,VALID,79.8515,VALID,203.365,VALID,27.6941,VALID,326,VALID,0.328516,
2012-08-13, 07:07:05,VALID,1004.81,VALID,0,VALID,78.6843,VALID,204.75,VALID,27.7915,VALID,344,VALID,0.811719,
2012-08-13, 07:08:05,VALID,1004.82,VALID,0,VALID,78.9284,VALID,206.707,VALID,27.8326,VALID,349,VALID,0.592188,
2012-08-13, 07:09:05,VALID,1004.82,VALID,0,VALID,77.4179,VALID,209.315,VALID,27.7157,VALID,350,VALID,1.42227,
2012-08-13, 07:10:05,VALID,1004.81,VALID,0,VALID,79.3175,VALID,212.005,VALID,27.4018,VALID,351,VALID,1.27734,
2012-08-13, 07:11:05,VALID,1004.84,VALID,0,VALID,80.7136,VALID,214.939,VALID,27.2675,VALID,349,VALID,0.815625,
2012-08-13, 07:12:05,VALID,1004.87,VALID,0,VALID,81.2247,VALID,217.71,VALID,27.2285,VALID,351,VALID,0.561328,
2012-08-13, 07:13:05,VALID,1004.87,VALID,0,VALID,80.8432,VALID,221.297,VALID,27.248,VALID,358,VALID,0.807813,
2012-08-13, 07:14:05,VALID,1004.9,VALID,0,VALID,81.1179,VALID,224.068,VALID,27.3064,VALID,338,VALID,0.413672,
2012-08-13, 07:15:05,VALID,1004.91,VALID,0,VALID,79.9125,VALID,227.084,VALID,27.3865,VALID,31,VALID,0.472266,
2012-08-13, 07:16:05,VALID,1004.92,VALID,0,VALID,79.6837,VALID,230.1,VALID,27.4428,VALID,338,VALID,0.459375,
2012-08-13, 07:17:05,VALID,1004.92,VALID,0,VALID,79.081,VALID,233.034,VALID,27.5403,VALID,31,VALID,0.688672,
2012-08-13, 07:18:05,VALID,1004.91,VALID,0,VALID,79.0428,VALID,235.805,VALID,27.6182,VALID,353,VALID,0.512109,
2012-08-13, 07:19:05,VALID,1004.93,VALID,0,VALID,78.9589,VALID,238.821,VALID,27.6983,VALID,336,VALID,0.750781,
2012-08-13, 07:20:05,VALID,1004.93,VALID,0,VALID,78.4707,VALID,242.408,VALID,27.7567,VALID,348,VALID,0.968359,
2012-08-13, 07:21:05,VALID,1004.93,VALID,0,VALID,79.1191,VALID,245.26,VALID,27.7372,VALID,345,VALID,0.758203,
2012-08-13, 07:22:05,VALID,1004.93,VALID,0,VALID,78.5622,VALID,247.624,VALID,27.7372,VALID,349,VALID,0.330859,
2012-08-13, 07:23:05,VALID,1004.92,VALID,0,VALID,78.2952,VALID,250.803,VALID,27.8347,VALID,353,VALID,0.5375,
2012-08-13, 07:24:05,VALID,1004.91,VALID,0,VALID,78.1884,VALID,254.389,VALID,27.9127,VALID,343,VALID,0.639844,
2012-08-13, 07:25:05,VALID,1004.92,VALID,0,VALID,77.334,VALID,257.568,VALID,27.9105,VALID,351,VALID,0.802734,
2012-08-13, 07:26:05,VALID,1004.94,VALID,0,VALID,77.8375,VALID,259.198,VALID,27.8716,VALID,351,VALID,0.851563,
2012-08-13, 07:27:05,VALID,1004.94,VALID,0,VALID,77.7764,VALID,262.459,VALID,27.7936,VALID,354,VALID,0.892187,
2012-08-13, 07:28:05,VALID,1004.94,VALID,0,VALID,77.0135,VALID,265.882,VALID,27.7741,VALID,353,VALID,0.9875,
2012-08-13, 07:29:05,VALID,1004.94,VALID,0,VALID,77.807,VALID,269.713,VALID,27.7741,VALID,350,VALID,1.04297,
2012-08-13, 07:30:05,VALID,1004.97,VALID,0,VALID,77.3492,VALID,273.625,VALID,27.7546,VALID,345,VALID,0.901563,
2012-08-13, 07:31:05,VALID,1004.93,VALID,0,VALID,77.2729,VALID,277.212,VALID,27.7741,VALID,344,VALID,1.08359,
2012-08-13, 07:32:05,VALID,1004.96,VALID,0,VALID,77.8527,VALID,281.124,VALID,27.8326,VALID,339,VALID,0.467187,
2012-08-13, 07:33:05,VALID,1004.93,VALID,0,VALID,77.6849,VALID,285.037,VALID,27.93,VALID,340,VALID,0.657812,
2012-08-13, 07:34:05,VALID,1004.96,VALID,0,VALID,77.7841,VALID,288.949,VALID,28.1271,VALID,342,VALID,0.0304688,
2012-08-13, 07:35:05,VALID,1004.94,VALID,0,VALID,75.5946,VALID,292.699,VALID,28.3415,VALID,342,VALID,0.623828,
2012-08-13, 07:36:05,VALID,1004.95,VALID,0,VALID,74.1603,VALID,296.04,VALID,28.4584,VALID,333,VALID,0.553516,
2012-08-13, 07:37:05,VALID,1004.98,VALID,0,VALID,76.9296,VALID,300.034,VALID,28.5537,VALID,339,VALID,0.273047,
2012-08-13, 07:38:05,VALID,1004.97,VALID,0,VALID,74.023,VALID,304.028,VALID,28.7314,VALID,339,VALID,0.0191406,
2012-08-13, 07:39:04,VALID,1004.99,VALID,0,VALID,74.496,VALID,307.859,VALID,28.9848,VALID,339,VALID,0.115234,
2012-08-13, 07:40:04,VALID,1004.99,VALID,0,VALID,72.7032,VALID,312.098,VALID,29.1603,VALID,271,VALID,0.392188,
2012-08-13, 07:41:04,VALID,1005.03,VALID,0,VALID,72.9855,VALID,315.766,VALID,29.2773,VALID,271,VALID,0.0804688,
2012-08-13, 07:42:04,VALID,1005.05,VALID,0,VALID,71.1851,VALID,319.922,VALID,29.4115,VALID,284,VALID,0.227344,
2012-08-13, 07:43:04,VALID,1005.07,VALID,0,VALID,68.8354,VALID,323.753,VALID,29.5308,VALID,351,VALID,0.86875,
2012-08-13, 07:44:04,VALID,1005.11,VALID,0,VALID,70.5137,VALID,327.258,VALID,29.4115,VALID,327,VALID,0.73125,
2012-08-13, 07:45:04,VALID,1005.13,VALID,0,VALID,71.8946,VALID,331.089,VALID,29.392,VALID,345,VALID,0.565234,
2012-08-13, 07:46:04,VALID,1005.14,VALID,0,VALID,72.2913,VALID,335.083,VALID,29.3553,VALID,356,VALID,0.876172,
2012-08-13, 07:47:04,VALID,1005.17,VALID,0,VALID,71.8793,VALID,340.055,VALID,29.2578,VALID,353,VALID,1,
2012-08-13, 07:48:04,VALID,1005.23,VALID,0,VALID,72.2455,VALID,346.413,VALID,29.1386,VALID,1,VALID,0.895312,
2012-08-13, 07:49:04,VALID,1005.26,VALID,0,VALID,74.3663,VALID,357.58,VALID,29.1213,VALID,281,VALID,0.367578,
2012-08-13, 07:50:04,VALID,1005.3,VALID,0,VALID,73.0008,VALID,373.963,VALID,29.2361,VALID,287,VALID,0.0972656,
2012-08-13, 07:51:04,VALID,1005.34,VALID,0,VALID,72.154,VALID,394.259,VALID,29.3358,VALID,311,VALID,0.802734,
2012-08-13, 07:52:04,VALID,1005.36,VALID,0,VALID,72.5812,VALID,409.745,VALID,29.2556,VALID,6,VALID,0.692578,
2012-08-13, 07:53:04,VALID,1005.38,VALID,0,VALID,72.482,VALID,421.075,VALID,29.2795,VALID,359,VALID,1.23125,
2012-08-13, 07:54:04,VALID,1005.45,VALID,0,VALID,71.8641,VALID,413.169,VALID,29.2556,VALID,342,VALID,1.33398,
2012-08-13, 07:55:04,VALID,1005.43,VALID,0,VALID,71.7344,VALID,289.601,VALID,29.2015,VALID,347,VALID,1.58047,
2012-08-13, 07:56:04,VALID,1005.43,VALID,0,VALID,73.7636,VALID,199.941,VALID,29.0238,VALID,344,VALID,1.44453,
2012-08-13, 07:57:04,VALID,1005.5,VALID,0,VALID,74.8317,VALID,165.056,VALID,28.8093,VALID,359,VALID,1.48164,
2012-08-13, 07:58:04,VALID,1005.51,VALID,0,VALID,76.5177,VALID,148.265,VALID,28.5949,VALID,327,VALID,1.17461,
2012-08-13, 07:59:04,VALID,1005.54,VALID,0,VALID,75.2131,VALID,123.568,VALID,28.4389,VALID,352,VALID,1.86484,
2012-08-13, 08:00:04,VALID,1005.56,VALID,0,VALID,76.0981,VALID,117.291,VALID,28.2462,VALID,359,VALID,1.23867,
2012-08-13, 08:02:05,VALID,1005.59,VALID,0,VALID,77.1204,VALID,113.46,VALID,27.8326,VALID,355,VALID,1.58984,
2012-08-13, 08:03:05,VALID,1005.59,VALID,0,VALID,77.7535,VALID,119.003,VALID,27.6593,VALID,341,VALID,1.775,
2012-08-13, 08:04:05,VALID,1005.59,VALID,0,VALID,78.0511,VALID,136.69,VALID,27.5229,VALID,354,VALID,1.45234,
2012-08-13, 08:05:05,VALID,1005.62,VALID,0,VALID,78.875,VALID,128.703,VALID,27.4449,VALID,344,VALID,0.942969,
2012-08-13, 08:06:05,VALID,1005.63,VALID,0,VALID,78.8369,VALID,128.866,VALID,27.3865,VALID,351,VALID,1.43672,
2012-08-13, 08:07:05,VALID,1005.64,VALID,0,VALID,79.6455,VALID,132.941,VALID,27.328,VALID,353,VALID,0.853906,
2012-08-13, 08:08:05,VALID,1005.65,VALID,0,VALID,79.9736,VALID,136.69,VALID,27.3475,VALID,360,VALID,0.721094,
2012-08-13, 08:09:05,VALID,1005.63,VALID,0,VALID,79.821,VALID,143.619,VALID,27.3454,VALID,341,VALID,0.711328,
2012-08-13, 08:10:05,VALID,1005.65,VALID,0,VALID,79.7142,VALID,144.189,VALID,27.4254,VALID,353,VALID,0.360156,
2012-08-13, 08:11:05,VALID,1005.66,VALID,0,VALID,79.0657,VALID,143.048,VALID,27.4623,VALID,7,VALID,0.369922,
2012-08-13, 08:12:05,VALID,1005.66,VALID,0,VALID,78.8216,VALID,145.33,VALID,27.5013,VALID,355,VALID,0.529688,
2012-08-13, 08:13:05,VALID,1005.67,VALID,0,VALID,78.9131,VALID,151.525,VALID,27.5598,VALID,351,VALID,0.750781,
2012-08-13, 08:14:05,VALID,1005.69,VALID,0,VALID,78.9818,VALID,162.447,VALID,27.5987,VALID,342,VALID,0.710547,
2012-08-13, 08:15:05,VALID,1005.69,VALID,0,VALID,79.409,VALID,169.865,VALID,27.5987,VALID,344,VALID,0.910547,
2012-08-13, 08:16:05,VALID,1005.66,VALID,0,VALID,79.4777,VALID,185.84,VALID,27.5987,VALID,351,VALID,0.632422,
2012-08-13, 08:17:05,VALID,1005.65,VALID,0,VALID,79.7905,VALID,214.939,VALID,27.6593,VALID,335,VALID,0.713672,
2012-08-13, 08:18:05,VALID,1005.61,VALID,0,VALID,79.5158,VALID,241.592,VALID,27.7157,VALID,347,VALID,0.298047,
2012-08-13, 08:19:05,VALID,1005.61,VALID,0,VALID,78.2494,VALID,503.073,VALID,27.8131,VALID,340,VALID,0.381641,
2012-08-13, 08:20:05,VALID,1005.64,VALID,0,VALID,78.0434,VALID,659.815,VALID,28.0101,VALID,341,VALID,0.299219,
2012-08-13, 08:21:05,VALID,1005.63,VALID,0,VALID,77.6315,VALID,651.664,VALID,28.3003,VALID,359,VALID,0.664063,
2012-08-13, 08:22:05,VALID,1005.64,VALID,0,VALID,76.182,VALID,654.354,VALID,28.6512,VALID,349,VALID,0.264453,
2012-08-13, 08:23:05,VALID,1005.62,VALID,0,VALID,75.1292,VALID,649.382,VALID,29.0606,VALID,339,VALID,0.646484,
2012-08-13, 08:24:05,VALID,1005.64,VALID,0,VALID,73.962,VALID,533.802,VALID,29.4333,VALID,262,VALID,0.272266,
2012-08-13, 08:25:05,VALID,1005.65,VALID,0,VALID,69.4304,VALID,653.865,VALID,29.7235,VALID,279,VALID,1.22187,
2012-08-13, 08:26:05,VALID,1005.63,VALID,0,VALID,70.3078,VALID,655.576,VALID,29.9013,VALID,264,VALID,0.505469,
2012-08-13, 08:27:05,VALID,1005.64,VALID,0,VALID,67.4698,VALID,686.142,VALID,30.1135,VALID,337,VALID,0.534375,
2012-08-13, 08:28:05,VALID,1005.65,VALID,0,VALID,68.988,VALID,659.163,VALID,30.3304,VALID,57,VALID,0.444531,
2012-08-13, 08:29:05,VALID,1005.63,VALID,0,VALID,66.2873,VALID,354.971,VALID,30.5036,VALID,109,VALID,0.179297,
2012-08-13, 08:30:05,VALID,1005.67,VALID,0,VALID,65.9593,VALID,415.369,VALID,30.5449,VALID,103,VALID,0.499219,
2012-08-13, 08:31:05,VALID,1005.67,VALID,0,VALID,66.3713,VALID,231.567,VALID,30.3304,VALID,12,VALID,1.2125,
2012-08-13, 08:32:04,VALID,1005.7,VALID,0,VALID,66.6001,VALID,188.204,VALID,29.9988,VALID,37,VALID,0.538672,
2012-08-13, 08:33:04,VALID,1005.69,VALID,0,VALID,67.9276,VALID,176.141,VALID,29.8623,VALID,61,VALID,0.388281,
2012-08-13, 08:34:04,VALID,1005.72,VALID,0,VALID,68.5684,VALID,183.314,VALID,29.8428,VALID,61,VALID,0.00898437,
2012-08-13, 08:35:04,VALID,1005.69,VALID,0,VALID,68.5836,VALID,186.9,VALID,29.845,VALID,329,VALID,0.442187,
2012-08-13, 08:36:04,VALID,1005.72,VALID,0,VALID,67.2791,VALID,186.818,VALID,29.8038,VALID,319,VALID,0.466016,
2012-08-13, 08:37:04,VALID,1005.73,VALID,0,VALID,67.3325,VALID,191.464,VALID,29.7453,VALID,318,VALID,0.146094,
2012-08-13, 08:38:04,VALID,1005.73,VALID,0,VALID,65.8372,VALID,196.518,VALID,29.6673,VALID,222,VALID,0.782422,
2012-08-13, 08:39:04,VALID,1005.78,VALID,0,VALID,67.302,VALID,202.305,VALID,29.4528,VALID,225,VALID,0.6625,
2012-08-13, 08:40:04,VALID,1005.76,VALID,0,VALID,67.2867,VALID,206.055,VALID,29.2578,VALID,208,VALID,0.754687,
2012-08-13, 08:41:04,VALID,1005.75,VALID,0,VALID,68.7133,VALID,197.659,VALID,29.1018,VALID,192,VALID,0.552344,
2012-08-13, 08:42:04,VALID,1005.77,VALID,0,VALID,68.8201,VALID,174.266,VALID,28.9848,VALID,201,VALID,0.467969,
2012-08-13, 08:43:04,VALID,1005.78,VALID,0,VALID,68.3929,VALID,153.807,VALID,28.9068,VALID,192,VALID,0.804688,
2012-08-13, 08:44:04,VALID,1005.76,VALID,0,VALID,69.8271,VALID,135.712,VALID,28.7898,VALID,187,VALID,0.532422,
2012-08-13, 08:45:04,VALID,1005.79,VALID,0,VALID,71.2232,VALID,122.345,VALID,28.7119,VALID,190,VALID,0.53125,
2012-08-13, 08:48:05,INVALID - VALUE NOT AVAILABLE,0,INVALID - VALUE NOT AVAILABLE,0,INVALID - VALUE NOT AVAILABLE,0,INVALID - VALUE NOT AVAILABLE,0,INVALID - VALUE NOT AVAILABLE,0,INVALID,360,INVALID,0,
2012-08-13, 09:23:05,VALID,1005.91,VALID,0.5,VALID,94.0412,VALID,122.997,VALID,24.4433,VALID,289,VALID,0.390625,
2012-08-13, 09:24:05,VALID,1005.9,VALID,0.5,VALID,94.1175,VALID,130.577,VALID,24.4822,VALID,274,VALID,0.9375,
2012-08-13, 09:25:05,VALID,1005.89,VALID,0.5,VALID,94.1556,VALID,136.772,VALID,24.4628,VALID,320,VALID,0.805859,
2012-08-13, 09:26:05,VALID,1005.88,VALID,0.5,VALID,94.1709,VALID,139.136,VALID,24.4628,VALID,292,VALID,1.14727,
2012-08-13, 09:27:05,VALID,1005.9,VALID,0,VALID,94.293,VALID,141.499,VALID,24.4628,VALID,304,VALID,1.00547,
2012-08-13, 09:28:05,VALID,1005.89,VALID,0.5,VALID,94.3311,VALID,144.434,VALID,24.4822,VALID,292,VALID,0.846094,
2012-08-13, 09:29:05,VALID,1005.92,VALID,0.5,VALID,94.3006,VALID,144.189,VALID,24.422,VALID,283,VALID,1.13477,
2012-08-13, 09:30:05,VALID,1005.94,VALID,0,VALID,94.4227,VALID,137.18,VALID,24.4201,VALID,17,VALID,0.355469,
2012-08-13, 09:31:05,VALID,1005.94,VALID,0.5,VALID,94.4761,VALID,131.392,VALID,24.4822,VALID,328,VALID,0.738281,
2012-08-13, 09:32:05,VALID,1005.93,VALID,0,VALID,94.5523,VALID,127.398,VALID,24.5212,VALID,353,VALID,0.692578,
2012-08-13, 09:33:05,VALID,1005.94,VALID,1,VALID,94.4684,VALID,122.589,VALID,24.4414,VALID,347,VALID,0.839844,
2012-08-13, 09:34:05,VALID,1005.93,VALID,1,VALID,94.4761,VALID,127.806,VALID,24.422,VALID,350,VALID,0.742578,
2012-08-13, 09:35:05,VALID,1005.92,VALID,0.5,VALID,94.5066,VALID,123.975,VALID,24.4414,VALID,344,VALID,0.408984,
2012-08-13, 09:53:05,INVALID - VALUE NOT AVAILABLE,0,INVALID - VALUE NOT AVAILABLE,0,INVALID - VALUE NOT AVAILABLE,0,INVALID - VALUE NOT AVAILABLE,0,INVALID - VALUE NOT AVAILABLE,0,INVALID,360,INVALID,0,
2012-08-13, 09:58:05,VALID,1005.95,VALID,0,VALID,94.9185,VALID,129.844,VALID,24.0892,VALID,228,VALID,0.582031,
2012-08-13, 09:59:05,VALID,1005.93,VALID,0,VALID,94.888,VALID,134.001,VALID,24.091,VALID,177,VALID,0.822266,
2012-08-13, 10:00:05,VALID,1005.93,VALID,0.5,VALID,94.949,VALID,137.098,VALID,24.1105,VALID,180,VALID,0.258203,
2012-08-13, 10:01:05,VALID,1005.92,VALID,0,VALID,95.0024,VALID,139.462,VALID,24.1902,VALID,290,VALID,0.863281,
2012-08-13, 10:02:05,VALID,1005.89,VALID,0.5,VALID,95.0024,VALID,145.33,VALID,24.206,VALID,171,VALID,0.321484,
2012-08-13, 10:03:05,VALID,1005.88,VALID,0,VALID,94.9872,VALID,148.428,VALID,24.2662,VALID,281,VALID,0.540234,
2012-08-13, 10:04:05,VALID,1005.85,VALID,0,VALID,94.9872,VALID,150.139,VALID,24.2662,VALID,281,VALID,0.456641,
2012-08-13, 10:05:05,VALID,1005.82,VALID,0.5,VALID,94.9948,VALID,152.503,VALID,24.3246,VALID,281,VALID,0.480469,
2012-08-13, 10:06:05,VALID,1005.78,VALID,0.5,VALID,94.9033,VALID,157.149,VALID,24.2468,VALID,287,VALID,1.00586,
2012-08-13, 10:07:05,VALID,1005.76,VALID,0.5,VALID,94.9338,VALID,164.403,VALID,24.1884,VALID,270,VALID,0.903906,
2012-08-13, 10:08:05,VALID,1005.73,VALID,0,VALID,94.949,VALID,172.065,VALID,24.1865,VALID,326,VALID,0.559766,
2012-08-13, 10:09:05,VALID,1005.72,VALID,0.5,VALID,94.9414,VALID,183.314,VALID,24.1884,VALID,231,VALID,0.846094,
2012-08-13, 10:10:05,VALID,1005.72,VALID,0,VALID,94.9643,VALID,196.355,VALID,24.2078,VALID,267,VALID,0.930859,
2012-08-13, 10:11:05,VALID,1005.73,VALID,0,VALID,94.8575,VALID,209.885,VALID,24.1884,VALID,277,VALID,1.95547,
2012-08-13, 10:12:05,VALID,1005.72,VALID,0,VALID,94.8499,VALID,224.639,VALID,24.1105,VALID,308,VALID,0.853516,
2012-08-13, 10:13:05,VALID,1005.72,VALID,0,VALID,94.8651,VALID,238.088,VALID,24.0716,VALID,292,VALID,1.33047,
2012-08-13, 10:14:05,VALID,1005.71,VALID,0,VALID,94.9262,VALID,245.668,VALID,24.13,VALID,319,VALID,0.922656,
2012-08-13, 10:15:05,VALID,1005.7,VALID,0,VALID,95.0101,VALID,251.292,VALID,24.1671,VALID,298,VALID,0.461328,
2012-08-13, 10:16:05,VALID,1005.72,VALID,0,VALID,95.1016,VALID,254.145,VALID,24.2857,VALID,297,VALID,0.234766,
2012-08-13, 10:17:05,VALID,1005.69,VALID,0,VALID,95.0635,VALID,249.499,VALID,24.3636,VALID,259,VALID,1.15703,
2012-08-13, 10:18:05,VALID,1005.71,VALID,0,VALID,95.0253,VALID,244.201,VALID,24.3636,VALID,235,VALID,0.930859,
2012-08-13, 10:19:05,VALID,1005.72,VALID,0,VALID,95.0635,VALID,249.988,VALID,24.4414,VALID,240,VALID,1.2793,
2012-08-13, 10:20:05,VALID,1005.68,VALID,0,VALID,95.0711,VALID,250.232,VALID,24.4414,VALID,237,VALID,0.186719,
2012-08-13, 10:21:05,VALID,1005.67,VALID,0,VALID,95.0482,VALID,249.743,VALID,24.4804,VALID,271,VALID,1.00664,
2012-08-13, 10:22:04,VALID,1005.66,VALID,0,VALID,95.033,VALID,247.38,VALID,24.422,VALID,239,VALID,0.3125,
2012-08-13, 10:23:04,VALID,1005.64,VALID,0,VALID,94.9719,VALID,244.853,VALID,24.3636,VALID,264,VALID,0.808984,
2012-08-13, 10:24:04,VALID,1005.65,VALID,0,VALID,95.0177,VALID,239.147,VALID,24.422,VALID,234,VALID,0.451953,
2012-08-13, 10:25:04,VALID,1005.66,VALID,0,VALID,95.0024,VALID,230.915,VALID,24.4414,VALID,299,VALID,0.639063,
2012-08-13, 10:26:04,VALID,1005.69,VALID,0,VALID,94.9414,VALID,218.036,VALID,24.4609,VALID,268,VALID,0.758594,
2012-08-13, 10:27:04,VALID,1005.72,VALID,0,VALID,94.9185,VALID,203.772,VALID,24.3441,VALID,228,VALID,0.323047,
2012-08-13, 10:28:04,VALID,1005.74,VALID,0,VALID,94.9262,VALID,189.019,VALID,24.422,VALID,319,VALID,0.786719,
2012-08-13, 10:29:04,VALID,1005.75,VALID,0,VALID,94.8956,VALID,174.511,VALID,24.3441,VALID,230,VALID,0.612109,
2012-08-13, 10:30:04,VALID,1005.77,VALID,0,VALID,94.9262,VALID,162.936,VALID,24.3441,VALID,337,VALID,0.852734,
2012-08-13, 10:31:04,VALID,1005.76,VALID,0,VALID,94.8651,VALID,154.215,VALID,24.3052,VALID,348,VALID,0.648828,
2012-08-13, 10:32:04,VALID,1005.78,VALID,0,VALID,94.9109,VALID,146.961,VALID,24.3052,VALID,346,VALID,0,
2012-08-13, 10:33:04,VALID,1005.73,VALID,0,VALID,94.8346,VALID,141.173,VALID,24.2662,VALID,341,VALID,1.10156,
2012-08-13, 10:34:04,VALID,1005.74,VALID,0,VALID,94.8117,VALID,137.098,VALID,24.1671,VALID,359,VALID,0.504297,
2012-08-13, 10:35:04,VALID,1005.73,VALID,0,VALID,94.8956,VALID,135.142,VALID,24.2468,VALID,359,VALID,0.348047,
2012-08-13, 10:36:04,VALID,1005.71,VALID,0,VALID,94.8422,VALID,134.001,VALID,24.1671,VALID,3,VALID,0.240625,
2012-08-13, 10:37:04,VALID,1005.75,VALID,0,VALID,94.8499,VALID,132.941,VALID,24.1884,VALID,352,VALID,0.632422,
2012-08-13, 10:38:04,VALID,1005.77,VALID,0,VALID,94.8728,VALID,131.474,VALID,24.1884,VALID,351,VALID,0.680469,
2012-08-13, 10:39:04,VALID,1005.77,VALID,0,VALID,94.9414,VALID,129.681,VALID,24.2468,VALID,350,VALID,0.161328,
2012-08-13, 10:40:04,VALID,1005.79,VALID,0,VALID,94.8346,VALID,127.806,VALID,24.1689,VALID,345,VALID,0.652344,
2012-08-13, 10:41:04,VALID,1005.79,VALID,0,VALID,94.8194,VALID,124.872,VALID,24.1105,VALID,340,VALID,0.323438,
2012-08-13, 11:21:05,VALID,1005.37,VALID,0,VALID,94.9033,VALID,118.84,VALID,24.5972,VALID,24,VALID,1.41836,
2012-08-13, 11:22:05,VALID,1005.37,VALID,0,VALID,94.9109,VALID,123.731,VALID,24.599,VALID,35,VALID,0.200391,
2012-08-13, 11:23:05,VALID,1005.32,VALID,0,VALID,94.9033,VALID,129.355,VALID,24.638,VALID,13,VALID,0.924609,
2012-08-13, 11:24:05,VALID,1005.29,VALID,0,VALID,94.8804,VALID,136.364,VALID,24.638,VALID,20,VALID,1.05078,
2012-08-13, 11:25:05,VALID,1005.24,VALID,0,VALID,94.8575,VALID,144.352,VALID,24.638,VALID,27,VALID,1.34453,
2012-08-13, 11:26:05,VALID,1005.21,VALID,0,VALID,94.8194,VALID,155.111,VALID,24.6185,VALID,30,VALID,2.29805,
2012-08-13, 11:27:05,VALID,1005.22,VALID,0,VALID,94.8651,VALID,168.805,VALID,24.6769,VALID,20,VALID,0.735156,
2012-08-13, 11:28:05,VALID,1005.2,VALID,0,VALID,94.8117,VALID,186.737,VALID,24.6964,VALID,16,VALID,1.3207,
2012-08-13, 11:29:05,VALID,1005.19,VALID,0,VALID,94.8422,VALID,206.299,VALID,24.7159,VALID,30,VALID,0.601563,
2012-08-13, 11:30:05,VALID,1005.21,VALID,0,VALID,94.7965,VALID,226.758,VALID,24.7159,VALID,14,VALID,0.975391,
2012-08-13, 11:31:05,VALID,1005.23,VALID,0,VALID,94.7354,VALID,246.483,VALID,24.6556,VALID,11,VALID,1.11328,
2012-08-13, 11:32:05,VALID,1005.25,VALID,0.5,VALID,94.7125,VALID,264.659,VALID,24.6945,VALID,8,VALID,0.945313,
2012-08-13, 11:33:05,VALID,1005.22,VALID,0,VALID,94.7507,VALID,282.347,VALID,24.7724,VALID,2,VALID,1.15156,
2012-08-13, 11:34:05,VALID,1005.24,VALID,0,VALID,94.7049,VALID,299.464,VALID,24.8327,VALID,350,VALID,1.42305,
2012-08-13, 11:35:05,VALID,1005.23,VALID,0,VALID,94.7278,VALID,316.01,VALID,24.8308,VALID,360,VALID,1.11055,
2012-08-13, 11:36:05,VALID,1005.22,VALID,0,VALID,94.7507,VALID,335.98,VALID,24.9476,VALID,357,VALID,0.883984,
2012-08-13, 11:37:05,VALID,1005.17,VALID,0,VALID,94.6897,VALID,359.536,VALID,24.9671,VALID,1,VALID,1.05664,
2012-08-13, 11:38:05,VALID,1005.17,VALID,0,VALID,94.682,VALID,382.684,VALID,25.045,VALID,350,VALID,1.13633,
2012-08-13, 11:39:05,VALID,1005.15,VALID,0,VALID,94.6363,VALID,403.225,VALID,25.0839,VALID,17,VALID,1.3332,
2012-08-13, 11:40:05,VALID,1005.17,VALID,0,VALID,94.7202,VALID,427.188,VALID,25.2592,VALID,24,VALID,0.316016,
2012-08-13, 11:41:05,VALID,1005.15,VALID,0,VALID,94.5447,VALID,444.468,VALID,25.2007,VALID,3,VALID,1.12812,
2012-08-13, 11:42:05,VALID,1005.15,VALID,0,VALID,94.5752,VALID,467.372,VALID,25.2592,VALID,1,VALID,0.500781,
2012-08-13, 11:43:05,VALID,1005.15,VALID,0,VALID,94.5447,VALID,486.364,VALID,25.3176,VALID,40,VALID,1.05156,
2012-08-13, 11:44:05,VALID,1005.12,VALID,0,VALID,94.5523,VALID,468.839,VALID,25.4344,VALID,18,VALID,0.742188,
2012-08-13, 11:45:05,VALID,1005.12,VALID,0,VALID,94.5218,VALID,457.51,VALID,25.5318,VALID,6,VALID,0.626953,
2012-08-13, 11:46:05,VALID,1005.09,VALID,0,VALID,94.0259,VALID,447.484,VALID,25.3546,VALID,16,VALID,1.60508,
2012-08-13, 11:47:05,VALID,1005.07,VALID,0,VALID,93.4767,VALID,442.512,VALID,25.3176,VALID,25,VALID,0.398047,
2012-08-13, 11:48:05,VALID,1005.08,VALID,0,VALID,93.2554,VALID,439.741,VALID,25.2962,VALID,22,VALID,1.40781,
2012-08-13, 11:49:05,VALID,1005.05,VALID,0,VALID,93.2249,VALID,436.806,VALID,25.3351,VALID,12,VALID,1.20703,
2012-08-13, 11:50:05,VALID,1005.03,VALID,0,VALID,92.6528,VALID,434.279,VALID,25.3565,VALID,352,VALID,1.28672,
2012-08-13, 11:51:04,VALID,1005.06,VALID,0,VALID,93.0723,VALID,436.317,VALID,25.4363,VALID,341,VALID,0.881641,
2012-08-13, 11:52:04,VALID,1005.01,VALID,0,VALID,93.3851,VALID,441.371,VALID,25.5318,VALID,355,VALID,1.08594,
2012-08-13, 11:53:04,VALID,1005.01,VALID,0,VALID,92.8435,VALID,451.07,VALID,25.5337,VALID,359,VALID,1.18477,
2012-08-13, 11:54:04,VALID,1005,VALID,0,VALID,92.7748,VALID,467.291,VALID,25.5727,VALID,1,VALID,0.932422,
2012-08-13, 11:55:04,VALID,1005.02,VALID,0,VALID,92.5002,VALID,482.533,VALID,25.6116,VALID,350,VALID,0.83125,
2012-08-13, 11:56:04,VALID,1005.01,VALID,0,VALID,93.1639,VALID,504.377,VALID,25.7499,VALID,12,VALID,1.04258,
2012-08-13, 11:57:04,VALID,1005.03,VALID,0,VALID,92.1035,VALID,531.438,VALID,25.7285,VALID,12,VALID,1.33633,
2012-08-13, 11:58:04,VALID,1005.01,VALID,0,VALID,92.9655,VALID,552.875,VALID,25.9447,VALID,344,VALID,0.679688,
2012-08-13, 11:59:04,VALID,1005.02,VALID,0,VALID,91.188,VALID,607.404,VALID,26.0031,VALID,299,VALID,0.7125,
2012-08-13, 12:00:04,VALID,1005.02,VALID,0,VALID,91.3482,VALID,680.925,VALID,26.0206,VALID,358,VALID,0.723828,
2012-08-13, 12:01:04,VALID,1005.03,VALID,0,VALID,90.776,VALID,964.74,VALID,26.118,VALID,350,VALID,1.50664,
2012-08-13, 12:02:04,VALID,1005.02,VALID,0,VALID,91.2567,VALID,1026.12,VALID,26.2739,VALID,341,VALID,0.668359,
2012-08-13, 12:03:04,VALID,1005.04,VALID,0,VALID,88.9222,VALID,993.186,VALID,26.3693,VALID,1,VALID,1.6168,